Index of /20260426/WXO-DD/model_gdps/15km/00/045
Name Last modified Size Description
Parent Directory -
20260426T00Z_MSC_GDPS_AbsoluteVorticity_IsbL-0200_LatLon0.15_PT045H.grib2 2026-04-26 04:07 1.5M
20260426T00Z_MSC_GDPS_AbsoluteVorticity_IsbL-0250_LatLon0.15_PT045H.grib2 2026-04-26 04:07 1.6M
20260426T00Z_MSC_GDPS_AbsoluteVorticity_IsbL-0500_LatLon0.15_PT045H.grib2 2026-04-26 04:07 1.2M
20260426T00Z_MSC_GDPS_AbsoluteVorticity_IsbL-0700_LatLon0.15_PT045H.grib2 2026-04-26 04:07 1.3M
20260426T00Z_MSC_GDPS_AbsoluteVorticity_IsbL-0850_LatLon0.15_PT045H.grib2 2026-04-26 04:07 1.6M
20260426T00Z_MSC_GDPS_AirTemp_AGL-120m_LatLon0.15_PT045H.grib2 2026-04-26 04:07 916K
20260426T00Z_MSC_GDPS_AirTemp_AGL-2m_LatLon0.15_PT045H.grib2 2026-04-26 04:07 1.0M
20260426T00Z_MSC_GDPS_AirTemp_AGL-40m_LatLon0.15_PT045H.grib2 2026-04-26 04:07 820K
20260426T00Z_MSC_GDPS_AirTemp_AGL-80m_LatLon0.15_PT045H.grib2 2026-04-26 04:07 925K
20260426T00Z_MSC_GDPS_AirTemp_IsbL-0001_LatLon0.15_PT045H.grib2 2026-04-26 04:07 714K
20260426T00Z_MSC_GDPS_AirTemp_IsbL-0005_LatLon0.15_PT045H.grib2 2026-04-26 04:07 692K
20260426T00Z_MSC_GDPS_AirTemp_IsbL-0010_LatLon0.15_PT045H.grib2 2026-04-26 04:07 767K
20260426T00Z_MSC_GDPS_AirTemp_IsbL-0020_LatLon0.15_PT045H.grib2 2026-04-26 04:07 791K
20260426T00Z_MSC_GDPS_AirTemp_IsbL-0030_LatLon0.15_PT045H.grib2 2026-04-26 04:07 754K
20260426T00Z_MSC_GDPS_AirTemp_IsbL-0050_LatLon0.15_PT045H.grib2 2026-04-26 04:07 809K
20260426T00Z_MSC_GDPS_AirTemp_IsbL-0100_LatLon0.15_PT045H.grib2 2026-04-26 04:07 1.0M
20260426T00Z_MSC_GDPS_AirTemp_IsbL-0150_LatLon0.15_PT045H.grib2 2026-04-26 04:07 969K
20260426T00Z_MSC_GDPS_AirTemp_IsbL-0175_LatLon0.15_PT045H.grib2 2026-04-26 04:07 959K
20260426T00Z_MSC_GDPS_AirTemp_IsbL-0200_LatLon0.15_PT045H.grib2 2026-04-26 04:07 1.0M
20260426T00Z_MSC_GDPS_AirTemp_IsbL-0225_LatLon0.15_PT045H.grib2 2026-04-26 04:07 1.0M
20260426T00Z_MSC_GDPS_AirTemp_IsbL-0250_LatLon0.15_PT045H.grib2 2026-04-26 04:07 1.0M
20260426T00Z_MSC_GDPS_AirTemp_IsbL-0275_LatLon0.15_PT045H.grib2 2026-04-26 04:07 1.0M
20260426T00Z_MSC_GDPS_AirTemp_IsbL-0300_LatLon0.15_PT045H.grib2 2026-04-26 04:07 1.0M
20260426T00Z_MSC_GDPS_AirTemp_IsbL-0350_LatLon0.15_PT045H.grib2 2026-04-26 04:07 930K
20260426T00Z_MSC_GDPS_AirTemp_IsbL-0400_LatLon0.15_PT045H.grib2 2026-04-26 04:07 939K
20260426T00Z_MSC_GDPS_AirTemp_IsbL-0450_LatLon0.15_PT045H.grib2 2026-04-26 04:07 962K
20260426T00Z_MSC_GDPS_AirTemp_IsbL-0500_LatLon0.15_PT045H.grib2 2026-04-26 04:07 1.0M
20260426T00Z_MSC_GDPS_AirTemp_IsbL-0550_LatLon0.15_PT045H.grib2 2026-04-26 04:07 806K
20260426T00Z_MSC_GDPS_AirTemp_IsbL-0600_LatLon0.15_PT045H.grib2 2026-04-26 04:07 897K
20260426T00Z_MSC_GDPS_AirTemp_IsbL-0650_LatLon0.15_PT045H.grib2 2026-04-26 04:07 922K
20260426T00Z_MSC_GDPS_AirTemp_IsbL-0700_LatLon0.15_PT045H.grib2 2026-04-26 04:07 955K
20260426T00Z_MSC_GDPS_AirTemp_IsbL-0750_LatLon0.15_PT045H.grib2 2026-04-26 04:07 1.0M
20260426T00Z_MSC_GDPS_AirTemp_IsbL-0800_LatLon0.15_PT045H.grib2 2026-04-26 04:07 1.1M
20260426T00Z_MSC_GDPS_AirTemp_IsbL-0850_LatLon0.15_PT045H.grib2 2026-04-26 04:07 1.1M
20260426T00Z_MSC_GDPS_AirTemp_IsbL-0875_LatLon0.15_PT045H.grib2 2026-04-26 04:07 1.1M
20260426T00Z_MSC_GDPS_AirTemp_IsbL-0900_LatLon0.15_PT045H.grib2 2026-04-26 04:07 1.1M
20260426T00Z_MSC_GDPS_AirTemp_IsbL-0925_LatLon0.15_PT045H.grib2 2026-04-26 04:07 1.1M
20260426T00Z_MSC_GDPS_AirTemp_IsbL-0950_LatLon0.15_PT045H.grib2 2026-04-26 04:07 1.2M
20260426T00Z_MSC_GDPS_AirTemp_IsbL-0970_LatLon0.15_PT045H.grib2 2026-04-26 04:07 1.2M
20260426T00Z_MSC_GDPS_AirTemp_IsbL-0985_LatLon0.15_PT045H.grib2 2026-04-26 04:07 1.1M
20260426T00Z_MSC_GDPS_AirTemp_IsbL-1000_LatLon0.15_PT045H.grib2 2026-04-26 04:07 1.1M
20260426T00Z_MSC_GDPS_AirTemp_IsbL-1015_LatLon0.15_PT045H.grib2 2026-04-26 04:07 1.1M
20260426T00Z_MSC_GDPS_Albedo_Sfc_LatLon0.15_PT045H.grib2 2026-04-26 04:07 246K
20260426T00Z_MSC_GDPS_CAPE_Sfc_LatLon0.15_PT045H.grib2 2026-04-26 04:07 4.0M
20260426T00Z_MSC_GDPS_CIN_Sfc_LatLon0.15_PT045H.grib2 2026-04-26 04:07 2.9M
20260426T00Z_MSC_GDPS_CloudWater_EAtm_LatLon0.15_PT045H.grib2 2026-04-26 04:07 534K
20260426T00Z_MSC_GDPS_ConvectivePrecip-Accum_Sfc_LatLon0.15_PT045H.grib2 2026-04-26 04:07 2.9M
20260426T00Z_MSC_GDPS_DewPointDepression_AGL-2m_LatLon0.15_PT045H.grib2 2026-04-26 04:07 762K
20260426T00Z_MSC_GDPS_DewPointDepression_IsbL-0010_LatLon0.15_PT045H.grib2 2026-04-26 04:07 46K
20260426T00Z_MSC_GDPS_DewPointDepression_IsbL-0020_LatLon0.15_PT045H.grib2 2026-04-26 04:07 81K
20260426T00Z_MSC_GDPS_DewPointDepression_IsbL-0030_LatLon0.15_PT045H.grib2 2026-04-26 04:07 96K
20260426T00Z_MSC_GDPS_DewPointDepression_IsbL-0050_LatLon0.15_PT045H.grib2 2026-04-26 04:07 364K
20260426T00Z_MSC_GDPS_DewPointDepression_IsbL-0100_LatLon0.15_PT045H.grib2 2026-04-26 04:07 410K
20260426T00Z_MSC_GDPS_DewPointDepression_IsbL-0150_LatLon0.15_PT045H.grib2 2026-04-26 04:07 461K
20260426T00Z_MSC_GDPS_DewPointDepression_IsbL-0175_LatLon0.15_PT045H.grib2 2026-04-26 04:07 562K
20260426T00Z_MSC_GDPS_DewPointDepression_IsbL-0200_LatLon0.15_PT045H.grib2 2026-04-26 04:07 665K
20260426T00Z_MSC_GDPS_DewPointDepression_IsbL-0225_LatLon0.15_PT045H.grib2 2026-04-26 04:07 769K
20260426T00Z_MSC_GDPS_DewPointDepression_IsbL-0250_LatLon0.15_PT045H.grib2 2026-04-26 04:07 861K
20260426T00Z_MSC_GDPS_DewPointDepression_IsbL-0275_LatLon0.15_PT045H.grib2 2026-04-26 04:07 887K
20260426T00Z_MSC_GDPS_DewPointDepression_IsbL-0300_LatLon0.15_PT045H.grib2 2026-04-26 04:07 929K
20260426T00Z_MSC_GDPS_DewPointDepression_IsbL-0350_LatLon0.15_PT045H.grib2 2026-04-26 04:07 955K
20260426T00Z_MSC_GDPS_DewPointDepression_IsbL-0400_LatLon0.15_PT045H.grib2 2026-04-26 04:07 1.0M
20260426T00Z_MSC_GDPS_DewPointDepression_IsbL-0450_LatLon0.15_PT045H.grib2 2026-04-26 04:07 1.0M
20260426T00Z_MSC_GDPS_DewPointDepression_IsbL-0500_LatLon0.15_PT045H.grib2 2026-04-26 04:07 1.0M
20260426T00Z_MSC_GDPS_DewPointDepression_IsbL-0550_LatLon0.15_PT045H.grib2 2026-04-26 04:07 1.0M
20260426T00Z_MSC_GDPS_DewPointDepression_IsbL-0600_LatLon0.15_PT045H.grib2 2026-04-26 04:07 1.1M
20260426T00Z_MSC_GDPS_DewPointDepression_IsbL-0650_LatLon0.15_PT045H.grib2 2026-04-26 04:07 1.1M
20260426T00Z_MSC_GDPS_DewPointDepression_IsbL-0700_LatLon0.15_PT045H.grib2 2026-04-26 04:07 1.1M
20260426T00Z_MSC_GDPS_DewPointDepression_IsbL-0750_LatLon0.15_PT045H.grib2 2026-04-26 04:07 1.1M
20260426T00Z_MSC_GDPS_DewPointDepression_IsbL-0800_LatLon0.15_PT045H.grib2 2026-04-26 04:07 1.2M
20260426T00Z_MSC_GDPS_DewPointDepression_IsbL-0850_LatLon0.15_PT045H.grib2 2026-04-26 04:07 1.2M
20260426T00Z_MSC_GDPS_DewPointDepression_IsbL-0875_LatLon0.15_PT045H.grib2 2026-04-26 04:07 1.1M
20260426T00Z_MSC_GDPS_DewPointDepression_IsbL-0900_LatLon0.15_PT045H.grib2 2026-04-26 04:07 1.1M
20260426T00Z_MSC_GDPS_DewPointDepression_IsbL-0925_LatLon0.15_PT045H.grib2 2026-04-26 04:07 1.0M
20260426T00Z_MSC_GDPS_DewPointDepression_IsbL-0950_LatLon0.15_PT045H.grib2 2026-04-26 04:07 1.0M
20260426T00Z_MSC_GDPS_DewPointDepression_IsbL-0970_LatLon0.15_PT045H.grib2 2026-04-26 04:07 1.0M
20260426T00Z_MSC_GDPS_DewPointDepression_IsbL-0985_LatLon0.15_PT045H.grib2 2026-04-26 04:07 1.0M
20260426T00Z_MSC_GDPS_DewPointDepression_IsbL-1000_LatLon0.15_PT045H.grib2 2026-04-26 04:07 1.0M
20260426T00Z_MSC_GDPS_DewPointDepression_IsbL-1015_LatLon0.15_PT045H.grib2 2026-04-26 04:07 918K
20260426T00Z_MSC_GDPS_DewPoint_AGL-2m_LatLon0.15_PT045H.grib2 2026-04-26 04:07 606K
20260426T00Z_MSC_GDPS_DownwardLongwaveRadiationFlux-Accum_Sfc_LatLon0.15_PT045H.grib2 2026-04-26 04:07 770K
20260426T00Z_MSC_GDPS_DownwardShortwaveRadiationFlux-Accum_NTAtm_LatLon0.15_PT045H.grib2 2026-04-26 04:07 270K
20260426T00Z_MSC_GDPS_DownwardShortwaveRadiationFlux-Accum_Sfc_LatLon0.15_PT045H.grib2 2026-04-26 04:07 1.0M
20260426T00Z_MSC_GDPS_FreezingRain-Accum1h_Sfc_LatLon0.15_PT045H.grib2 2026-04-26 04:07 34K
20260426T00Z_MSC_GDPS_FreezingRain-Accum3h_Sfc_LatLon0.15_PT045H.grib2 2026-04-26 04:07 33K
20260426T00Z_MSC_GDPS_FreezingRain-Accum_Sfc_LatLon0.15_PT045H.grib2 2026-04-26 04:07 210K
20260426T00Z_MSC_GDPS_GeopotentialHeight_IsbL-0001_LatLon0.15_PT045H.grib2 2026-04-26 04:07 397K
20260426T00Z_MSC_GDPS_GeopotentialHeight_IsbL-0005_LatLon0.15_PT045H.grib2 2026-04-26 04:07 506K
20260426T00Z_MSC_GDPS_GeopotentialHeight_IsbL-0010_LatLon0.15_PT045H.grib2 2026-04-26 04:07 487K
20260426T00Z_MSC_GDPS_GeopotentialHeight_IsbL-0020_LatLon0.15_PT045H.grib2 2026-04-26 04:07 427K
20260426T00Z_MSC_GDPS_GeopotentialHeight_IsbL-0030_LatLon0.15_PT045H.grib2 2026-04-26 04:07 583K
20260426T00Z_MSC_GDPS_GeopotentialHeight_IsbL-0050_LatLon0.15_PT045H.grib2 2026-04-26 04:07 581K
20260426T00Z_MSC_GDPS_GeopotentialHeight_IsbL-0100_LatLon0.15_PT045H.grib2 2026-04-26 04:07 612K
20260426T00Z_MSC_GDPS_GeopotentialHeight_IsbL-0150_LatLon0.15_PT045H.grib2 2026-04-26 04:07 630K
20260426T00Z_MSC_GDPS_GeopotentialHeight_IsbL-0175_LatLon0.15_PT045H.grib2 2026-04-26 04:07 635K
20260426T00Z_MSC_GDPS_GeopotentialHeight_IsbL-0200_LatLon0.15_PT045H.grib2 2026-04-26 04:07 639K
20260426T00Z_MSC_GDPS_GeopotentialHeight_IsbL-0225_LatLon0.15_PT045H.grib2 2026-04-26 04:07 642K
20260426T00Z_MSC_GDPS_GeopotentialHeight_IsbL-0250_LatLon0.15_PT045H.grib2 2026-04-26 04:07 644K
20260426T00Z_MSC_GDPS_GeopotentialHeight_IsbL-0275_LatLon0.15_PT045H.grib2 2026-04-26 04:07 644K
20260426T00Z_MSC_GDPS_GeopotentialHeight_IsbL-0300_LatLon0.15_PT045H.grib2 2026-04-26 04:07 643K
20260426T00Z_MSC_GDPS_GeopotentialHeight_IsbL-0350_LatLon0.15_PT045H.grib2 2026-04-26 04:07 636K
20260426T00Z_MSC_GDPS_GeopotentialHeight_IsbL-0400_LatLon0.15_PT045H.grib2 2026-04-26 04:07 626K
20260426T00Z_MSC_GDPS_GeopotentialHeight_IsbL-0450_LatLon0.15_PT045H.grib2 2026-04-26 04:07 616K
20260426T00Z_MSC_GDPS_GeopotentialHeight_IsbL-0500_LatLon0.15_PT045H.grib2 2026-04-26 04:07 606K
20260426T00Z_MSC_GDPS_GeopotentialHeight_IsbL-0550_LatLon0.15_PT045H.grib2 2026-04-26 04:07 593K
20260426T00Z_MSC_GDPS_GeopotentialHeight_IsbL-0600_LatLon0.15_PT045H.grib2 2026-04-26 04:07 524K
20260426T00Z_MSC_GDPS_GeopotentialHeight_IsbL-0650_LatLon0.15_PT045H.grib2 2026-04-26 04:07 522K
20260426T00Z_MSC_GDPS_GeopotentialHeight_IsbL-0700_LatLon0.15_PT045H.grib2 2026-04-26 04:07 523K
20260426T00Z_MSC_GDPS_GeopotentialHeight_IsbL-0750_LatLon0.15_PT045H.grib2 2026-04-26 04:07 690K
20260426T00Z_MSC_GDPS_GeopotentialHeight_IsbL-0800_LatLon0.15_PT045H.grib2 2026-04-26 04:07 700K
20260426T00Z_MSC_GDPS_GeopotentialHeight_IsbL-0850_LatLon0.15_PT045H.grib2 2026-04-26 04:07 708K
20260426T00Z_MSC_GDPS_GeopotentialHeight_IsbL-0875_LatLon0.15_PT045H.grib2 2026-04-26 04:07 714K
20260426T00Z_MSC_GDPS_GeopotentialHeight_IsbL-0900_LatLon0.15_PT045H.grib2 2026-04-26 04:07 723K
20260426T00Z_MSC_GDPS_GeopotentialHeight_IsbL-0925_LatLon0.15_PT045H.grib2 2026-04-26 04:07 732K
20260426T00Z_MSC_GDPS_GeopotentialHeight_IsbL-0950_LatLon0.15_PT045H.grib2 2026-04-26 04:07 739K
20260426T00Z_MSC_GDPS_GeopotentialHeight_IsbL-0970_LatLon0.15_PT045H.grib2 2026-04-26 04:07 750K
20260426T00Z_MSC_GDPS_GeopotentialHeight_IsbL-0985_LatLon0.15_PT045H.grib2 2026-04-26 04:07 765K
20260426T00Z_MSC_GDPS_GeopotentialHeight_IsbL-1000_LatLon0.15_PT045H.grib2 2026-04-26 04:07 789K
20260426T00Z_MSC_GDPS_GeopotentialHeight_IsbL-1015_LatLon0.15_PT045H.grib2 2026-04-26 04:07 813K
20260426T00Z_MSC_GDPS_Humidex_Sfc_LatLon0.15_PT045H.grib2 2026-04-26 04:07 5.3M
20260426T00Z_MSC_GDPS_IcePellets-Accum1h_Sfc_LatLon0.15_PT045H.grib2 2026-04-26 04:07 13K
20260426T00Z_MSC_GDPS_IcePellets-Accum3h_Sfc_LatLon0.15_PT045H.grib2 2026-04-26 04:07 16K
20260426T00Z_MSC_GDPS_IcePellets-Accum_Sfc_LatLon0.15_PT045H.grib2 2026-04-26 04:07 86K
20260426T00Z_MSC_GDPS_KIndex_Sfc_LatLon0.15_PT045H.grib2 2026-04-26 04:07 6.5M
20260426T00Z_MSC_GDPS_LatentHeatNetFlux_Sfc_LatLon0.15_PT045H.grib2 2026-04-26 04:07 669K
20260426T00Z_MSC_GDPS_LiftedIndex-MU-VT_IsbL-0500_LatLon0.15_PT045H.grib2 2026-04-26 04:07 5.3M
20260426T00Z_MSC_GDPS_NetLongwaveRadiationFlux-Accum_Sfc_LatLon0.15_PT045H.grib2 2026-04-26 04:07 1.1M
20260426T00Z_MSC_GDPS_NetShortwaveRadiationFlux-Accum_Sfc_LatLon0.15_PT045H.grib2 2026-04-26 04:07 1.0M
20260426T00Z_MSC_GDPS_O3MixingRatio_LatLon0.15_PT045H.grib2 2026-04-26 04:51 2.0M
20260426T00Z_MSC_GDPS_O3_EAtm_LatLon0.15_PT045H.grib2 2026-04-26 04:51 2.5M
20260426T00Z_MSC_GDPS_PlanetaryBoundaryLayerHeight_Sfc_LatLon0.15_PT045H.grib2 2026-04-26 04:07 2.4M
20260426T00Z_MSC_GDPS_Precip-Accum1h_Sfc_LatLon0.15_PT045H.grib2 2026-04-26 04:07 3.3M
20260426T00Z_MSC_GDPS_Precip-Accum3h_Sfc_LatLon0.15_PT045H.grib2 2026-04-26 04:07 3.6M
20260426T00Z_MSC_GDPS_Precip-Accum_Sfc_LatLon0.15_PT045H.grib2 2026-04-26 04:07 4.8M
20260426T00Z_MSC_GDPS_PrecipRate_Sfc_LatLon0.15_PT045H.grib2 2026-04-26 04:07 3.0M
20260426T00Z_MSC_GDPS_PrecipType-Instant_Sfc_LatLon0.15_PT045H.grib2 2026-04-26 04:07 1.6M
20260426T00Z_MSC_GDPS_Pressure_MSL_LatLon0.15_PT045H.grib2 2026-04-26 04:07 726K
20260426T00Z_MSC_GDPS_Pressure_PVU-1.5_LatLon0.15_PT045H.grib2 2026-04-26 04:07 5.8M
20260426T00Z_MSC_GDPS_Pressure_PVU-1_LatLon0.15_PT045H.grib2 2026-04-26 04:07 6.0M
20260426T00Z_MSC_GDPS_Pressure_PVU-2_LatLon0.15_PT045H.grib2 2026-04-26 04:07 5.6M
20260426T00Z_MSC_GDPS_Pressure_Sfc_LatLon0.15_PT045H.grib2 2026-04-26 04:07 1.1M
20260426T00Z_MSC_GDPS_RadiativeTemp_Sfc_LatLon0.15_PT045H.grib2 2026-04-26 04:07 659K
20260426T00Z_MSC_GDPS_Rain-Accum1h_Sfc_LatLon0.15_PT045H.grib2 2026-04-26 04:07 1.7M
20260426T00Z_MSC_GDPS_Rain-Accum3h_Sfc_LatLon0.15_PT045H.grib2 2026-04-26 04:07 1.9M
20260426T00Z_MSC_GDPS_Rain-Accum_Sfc_LatLon0.15_PT045H.grib2 2026-04-26 04:07 3.7M
20260426T00Z_MSC_GDPS_RelativeHumidity_AGL-2m_LatLon0.15_PT045H.grib2 2026-04-26 04:07 1.0M
20260426T00Z_MSC_GDPS_RelativeHumidity_IsbL-0010_LatLon0.15_PT045H.grib2 2026-04-26 04:07 174K
20260426T00Z_MSC_GDPS_RelativeHumidity_IsbL-0020_LatLon0.15_PT045H.grib2 2026-04-26 04:07 287K
20260426T00Z_MSC_GDPS_RelativeHumidity_IsbL-0030_LatLon0.15_PT045H.grib2 2026-04-26 04:07 352K
20260426T00Z_MSC_GDPS_RelativeHumidity_IsbL-0050_LatLon0.15_PT045H.grib2 2026-04-26 04:07 513K
20260426T00Z_MSC_GDPS_RelativeHumidity_IsbL-0100_LatLon0.15_PT045H.grib2 2026-04-26 04:07 514K
20260426T00Z_MSC_GDPS_RelativeHumidity_IsbL-0150_LatLon0.15_PT045H.grib2 2026-04-26 04:07 655K
20260426T00Z_MSC_GDPS_RelativeHumidity_IsbL-0175_LatLon0.15_PT045H.grib2 2026-04-26 04:07 593K
20260426T00Z_MSC_GDPS_RelativeHumidity_IsbL-0200_LatLon0.15_PT045H.grib2 2026-04-26 04:07 701K
20260426T00Z_MSC_GDPS_RelativeHumidity_IsbL-0225_LatLon0.15_PT045H.grib2 2026-04-26 04:07 786K
20260426T00Z_MSC_GDPS_RelativeHumidity_IsbL-0250_LatLon0.15_PT045H.grib2 2026-04-26 04:07 862K
20260426T00Z_MSC_GDPS_RelativeHumidity_IsbL-0275_LatLon0.15_PT045H.grib2 2026-04-26 04:07 886K
20260426T00Z_MSC_GDPS_RelativeHumidity_IsbL-0300_LatLon0.15_PT045H.grib2 2026-04-26 04:07 930K
20260426T00Z_MSC_GDPS_RelativeHumidity_IsbL-0350_LatLon0.15_PT045H.grib2 2026-04-26 04:07 948K
20260426T00Z_MSC_GDPS_RelativeHumidity_IsbL-0400_LatLon0.15_PT045H.grib2 2026-04-26 04:07 973K
20260426T00Z_MSC_GDPS_RelativeHumidity_IsbL-0450_LatLon0.15_PT045H.grib2 2026-04-26 04:07 1.0M
20260426T00Z_MSC_GDPS_RelativeHumidity_IsbL-0500_LatLon0.15_PT045H.grib2 2026-04-26 04:07 1.0M
20260426T00Z_MSC_GDPS_RelativeHumidity_IsbL-0550_LatLon0.15_PT045H.grib2 2026-04-26 04:07 1.0M
20260426T00Z_MSC_GDPS_RelativeHumidity_IsbL-0600_LatLon0.15_PT045H.grib2 2026-04-26 04:07 1.1M
20260426T00Z_MSC_GDPS_RelativeHumidity_IsbL-0650_LatLon0.15_PT045H.grib2 2026-04-26 04:07 1.1M
20260426T00Z_MSC_GDPS_RelativeHumidity_IsbL-0700_LatLon0.15_PT045H.grib2 2026-04-26 04:07 1.1M
20260426T00Z_MSC_GDPS_RelativeHumidity_IsbL-0750_LatLon0.15_PT045H.grib2 2026-04-26 04:07 1.2M
20260426T00Z_MSC_GDPS_RelativeHumidity_IsbL-0800_LatLon0.15_PT045H.grib2 2026-04-26 04:07 1.3M
20260426T00Z_MSC_GDPS_RelativeHumidity_IsbL-0850_LatLon0.15_PT045H.grib2 2026-04-26 04:07 1.3M
20260426T00Z_MSC_GDPS_RelativeHumidity_IsbL-0875_LatLon0.15_PT045H.grib2 2026-04-26 04:07 1.3M
20260426T00Z_MSC_GDPS_RelativeHumidity_IsbL-0900_LatLon0.15_PT045H.grib2 2026-04-26 04:07 1.3M
20260426T00Z_MSC_GDPS_RelativeHumidity_IsbL-0925_LatLon0.15_PT045H.grib2 2026-04-26 04:07 1.2M
20260426T00Z_MSC_GDPS_RelativeHumidity_IsbL-0950_LatLon0.15_PT045H.grib2 2026-04-26 04:07 1.2M
20260426T00Z_MSC_GDPS_RelativeHumidity_IsbL-0970_LatLon0.15_PT045H.grib2 2026-04-26 04:07 1.2M
20260426T00Z_MSC_GDPS_RelativeHumidity_IsbL-0985_LatLon0.15_PT045H.grib2 2026-04-26 04:07 1.2M
20260426T00Z_MSC_GDPS_RelativeHumidity_IsbL-1000_LatLon0.15_PT045H.grib2 2026-04-26 04:07 1.1M
20260426T00Z_MSC_GDPS_RelativeHumidity_IsbL-1015_LatLon0.15_PT045H.grib2 2026-04-26 04:07 1.1M
20260426T00Z_MSC_GDPS_RelativeVorticity_IsbL-0200_LatLon0.15_PT045H.grib2 2026-04-26 04:07 1.5M
20260426T00Z_MSC_GDPS_RelativeVorticity_IsbL-0250_LatLon0.15_PT045H.grib2 2026-04-26 04:07 1.6M
20260426T00Z_MSC_GDPS_RelativeVorticity_IsbL-0500_LatLon0.15_PT045H.grib2 2026-04-26 04:07 1.2M
20260426T00Z_MSC_GDPS_RelativeVorticity_IsbL-0700_LatLon0.15_PT045H.grib2 2026-04-26 04:07 1.6M
20260426T00Z_MSC_GDPS_RelativeVorticity_IsbL-0850_LatLon0.15_PT045H.grib2 2026-04-26 04:07 1.6M
20260426T00Z_MSC_GDPS_Runoff-Accum_Sfc_LatLon0.15_PT045H.grib2 2026-04-26 04:07 118K
20260426T00Z_MSC_GDPS_SensibleHeatNetFlux_Sfc_LatLon0.15_PT045H.grib2 2026-04-26 04:07 448K
20260426T00Z_MSC_GDPS_ShowalterIndex_IsbL-0500_LatLon0.15_PT045H.grib2 2026-04-26 04:07 6.2M
20260426T00Z_MSC_GDPS_Snow-Accum1h_Sfc_LatLon0.15_PT045H.grib2 2026-04-26 04:07 1.1M
20260426T00Z_MSC_GDPS_Snow-Accum3h_Sfc_LatLon0.15_PT045H.grib2 2026-04-26 04:07 913K
20260426T00Z_MSC_GDPS_Snow-Accum_Sfc_LatLon0.15_PT045H.grib2 2026-04-26 04:07 1.8M
20260426T00Z_MSC_GDPS_SnowDensity_Sfc_LatLon0.15_PT045H.grib2 2026-04-26 04:07 267K
20260426T00Z_MSC_GDPS_SnowDepth_Sfc_LatLon0.15_PT045H.grib2 2026-04-26 04:07 1.8M
20260426T00Z_MSC_GDPS_SoilTemp_DBS-0to10cm_LatLon0.15_PT045H.grib2 2026-04-26 04:07 501K
20260426T00Z_MSC_GDPS_SoilTemp_Sfc_LatLon0.15_PT045H.grib2 2026-04-26 04:07 565K
20260426T00Z_MSC_GDPS_SoilVolumetricIceContent_Sfc_LatLon0.15_PT045H.grib2 2026-04-26 04:07 212K
20260426T00Z_MSC_GDPS_SoilVolumetricWaterContent_DBS-0to10cm_LatLon0.15_PT045H.grib2 2026-04-26 04:07 573K
20260426T00Z_MSC_GDPS_SoilVolumetricWaterContent_DBS-0to1cm_LatLon0.15_PT045H.grib2 2026-04-26 04:07 655K
20260426T00Z_MSC_GDPS_SpecificHumidity_AGL-120m_LatLon0.15_PT045H.grib2 2026-04-26 04:07 1.1M
20260426T00Z_MSC_GDPS_SpecificHumidity_AGL-2m_LatLon0.15_PT045H.grib2 2026-04-26 04:07 1.2M
20260426T00Z_MSC_GDPS_SpecificHumidity_AGL-40m_LatLon0.15_PT045H.grib2 2026-04-26 04:07 1.1M
20260426T00Z_MSC_GDPS_SpecificHumidity_AGL-80m_LatLon0.15_PT045H.grib2 2026-04-26 04:07 1.1M
20260426T00Z_MSC_GDPS_SpecificHumidity_IsbL-0001_LatLon0.15_PT045H.grib2 2026-04-26 04:07 1.3M
20260426T00Z_MSC_GDPS_SpecificHumidity_IsbL-0005_LatLon0.15_PT045H.grib2 2026-04-26 04:07 1.2M
20260426T00Z_MSC_GDPS_SpecificHumidity_IsbL-0010_LatLon0.15_PT045H.grib2 2026-04-26 04:07 1.3M
20260426T00Z_MSC_GDPS_SpecificHumidity_IsbL-0020_LatLon0.15_PT045H.grib2 2026-04-26 04:07 1.4M
20260426T00Z_MSC_GDPS_SpecificHumidity_IsbL-0030_LatLon0.15_PT045H.grib2 2026-04-26 04:07 1.4M
20260426T00Z_MSC_GDPS_SpecificHumidity_IsbL-0050_LatLon0.15_PT045H.grib2 2026-04-26 04:07 1.4M
20260426T00Z_MSC_GDPS_SpecificHumidity_IsbL-0100_LatLon0.15_PT045H.grib2 2026-04-26 04:07 1.4M
20260426T00Z_MSC_GDPS_SpecificHumidity_IsbL-0150_LatLon0.15_PT045H.grib2 2026-04-26 04:07 1.2M
20260426T00Z_MSC_GDPS_SpecificHumidity_IsbL-0175_LatLon0.15_PT045H.grib2 2026-04-26 04:07 1.3M
20260426T00Z_MSC_GDPS_SpecificHumidity_IsbL-0200_LatLon0.15_PT045H.grib2 2026-04-26 04:07 1.3M
20260426T00Z_MSC_GDPS_SpecificHumidity_IsbL-0225_LatLon0.15_PT045H.grib2 2026-04-26 04:07 1.3M
20260426T00Z_MSC_GDPS_SpecificHumidity_IsbL-0250_LatLon0.15_PT045H.grib2 2026-04-26 04:07 1.4M
20260426T00Z_MSC_GDPS_SpecificHumidity_IsbL-0275_LatLon0.15_PT045H.grib2 2026-04-26 04:07 1.3M
20260426T00Z_MSC_GDPS_SpecificHumidity_IsbL-0300_LatLon0.15_PT045H.grib2 2026-04-26 04:07 1.2M
20260426T00Z_MSC_GDPS_SpecificHumidity_IsbL-0350_LatLon0.15_PT045H.grib2 2026-04-26 04:07 1.5M
20260426T00Z_MSC_GDPS_SpecificHumidity_IsbL-0400_LatLon0.15_PT045H.grib2 2026-04-26 04:07 1.4M
20260426T00Z_MSC_GDPS_SpecificHumidity_IsbL-0450_LatLon0.15_PT045H.grib2 2026-04-26 04:07 1.6M
20260426T00Z_MSC_GDPS_SpecificHumidity_IsbL-0500_LatLon0.15_PT045H.grib2 2026-04-26 04:07 1.4M
20260426T00Z_MSC_GDPS_SpecificHumidity_IsbL-0550_LatLon0.15_PT045H.grib2 2026-04-26 04:07 1.6M
20260426T00Z_MSC_GDPS_SpecificHumidity_IsbL-0600_LatLon0.15_PT045H.grib2 2026-04-26 04:07 1.7M
20260426T00Z_MSC_GDPS_SpecificHumidity_IsbL-0650_LatLon0.15_PT045H.grib2 2026-04-26 04:07 1.5M
20260426T00Z_MSC_GDPS_SpecificHumidity_IsbL-0700_LatLon0.15_PT045H.grib2 2026-04-26 04:07 1.6M
20260426T00Z_MSC_GDPS_SpecificHumidity_IsbL-0750_LatLon0.15_PT045H.grib2 2026-04-26 04:07 1.7M
20260426T00Z_MSC_GDPS_SpecificHumidity_IsbL-0800_LatLon0.15_PT045H.grib2 2026-04-26 04:07 1.9M
20260426T00Z_MSC_GDPS_SpecificHumidity_IsbL-0850_LatLon0.15_PT045H.grib2 2026-04-26 04:07 1.9M
20260426T00Z_MSC_GDPS_SpecificHumidity_IsbL-0875_LatLon0.15_PT045H.grib2 2026-04-26 04:07 1.9M
20260426T00Z_MSC_GDPS_SpecificHumidity_IsbL-0900_LatLon0.15_PT045H.grib2 2026-04-26 04:07 1.9M
20260426T00Z_MSC_GDPS_SpecificHumidity_IsbL-0925_LatLon0.15_PT045H.grib2 2026-04-26 04:07 1.9M
20260426T00Z_MSC_GDPS_SpecificHumidity_IsbL-0950_LatLon0.15_PT045H.grib2 2026-04-26 04:07 1.5M
20260426T00Z_MSC_GDPS_SpecificHumidity_IsbL-0970_LatLon0.15_PT045H.grib2 2026-04-26 04:07 1.5M
20260426T00Z_MSC_GDPS_SpecificHumidity_IsbL-0985_LatLon0.15_PT045H.grib2 2026-04-26 04:07 1.5M
20260426T00Z_MSC_GDPS_SpecificHumidity_IsbL-1000_LatLon0.15_PT045H.grib2 2026-04-26 04:07 1.5M
20260426T00Z_MSC_GDPS_SpecificHumidity_IsbL-1015_LatLon0.15_PT045H.grib2 2026-04-26 04:07 1.4M
20260426T00Z_MSC_GDPS_SpecificHumidity_Sfc_LatLon0.15_PT045H.grib2 2026-04-26 04:07 633K
20260426T00Z_MSC_GDPS_Thickness_IsbL-0850to0700_LatLon0.15_PT045H.grib2 2026-04-26 04:07 466K
20260426T00Z_MSC_GDPS_Thickness_IsbL-1000to0500_LatLon0.15_PT045H.grib2 2026-04-26 04:07 372K
20260426T00Z_MSC_GDPS_Thickness_IsbL-1000to0850_LatLon0.15_PT045H.grib2 2026-04-26 04:07 489K
20260426T00Z_MSC_GDPS_TotalCloudCover_Sfc_LatLon0.15_PT045H.grib2 2026-04-26 04:07 832K
20260426T00Z_MSC_GDPS_TotalTotalsIndex_Sfc_LatLon0.15_PT045H.grib2 2026-04-26 04:07 6.2M
20260426T00Z_MSC_GDPS_UVIndex-ClearSky_Sfc_LatLon0.15_PT045H.grib2 2026-04-26 04:51 1.0M
20260426T00Z_MSC_GDPS_UVIndex_Sfc_LatLon0.15_PT045H.grib2 2026-04-26 04:51 1.5M
20260426T00Z_MSC_GDPS_UpwardLongwaveRadiationFlux_NTAtm_LatLon0.15_PT045H.grib2 2026-04-26 04:07 1.1M
20260426T00Z_MSC_GDPS_VerticalVelocity_IsbL-0200_LatLon0.15_PT045H.grib2 2026-04-26 04:07 1.2M
20260426T00Z_MSC_GDPS_VerticalVelocity_IsbL-0250_LatLon0.15_PT045H.grib2 2026-04-26 04:07 1.0M
20260426T00Z_MSC_GDPS_VerticalVelocity_IsbL-0500_LatLon0.15_PT045H.grib2 2026-04-26 04:07 1.0M
20260426T00Z_MSC_GDPS_VerticalVelocity_IsbL-0600_LatLon0.15_PT045H.grib2 2026-04-26 04:07 1.3M
20260426T00Z_MSC_GDPS_VerticalVelocity_IsbL-0700_LatLon0.15_PT045H.grib2 2026-04-26 04:07 1.4M
20260426T00Z_MSC_GDPS_VerticalVelocity_IsbL-0850_LatLon0.15_PT045H.grib2 2026-04-26 04:07 1.3M
20260426T00Z_MSC_GDPS_WindChill_Sfc_LatLon0.15_PT045H.grib2 2026-04-26 04:07 5.3M
20260426T00Z_MSC_GDPS_WindDir_AGL-10m_LatLon0.15_PT045H.grib2 2026-04-26 04:07 1.3M
20260426T00Z_MSC_GDPS_WindDir_AGL-120m_LatLon0.15_PT045H.grib2 2026-04-26 04:07 1.4M
20260426T00Z_MSC_GDPS_WindDir_AGL-40m_LatLon0.15_PT045H.grib2 2026-04-26 04:07 1.4M
20260426T00Z_MSC_GDPS_WindDir_AGL-80m_LatLon0.15_PT045H.grib2 2026-04-26 04:07 1.4M
20260426T00Z_MSC_GDPS_WindDir_IsbL-0001_LatLon0.15_PT045H.grib2 2026-04-26 04:07 667K
20260426T00Z_MSC_GDPS_WindDir_IsbL-0005_LatLon0.15_PT045H.grib2 2026-04-26 04:07 805K
20260426T00Z_MSC_GDPS_WindDir_IsbL-0010_LatLon0.15_PT045H.grib2 2026-04-26 04:07 851K
20260426T00Z_MSC_GDPS_WindDir_IsbL-0020_LatLon0.15_PT045H.grib2 2026-04-26 04:07 957K
20260426T00Z_MSC_GDPS_WindDir_IsbL-0030_LatLon0.15_PT045H.grib2 2026-04-26 04:07 936K
20260426T00Z_MSC_GDPS_WindDir_IsbL-0050_LatLon0.15_PT045H.grib2 2026-04-26 04:07 948K
20260426T00Z_MSC_GDPS_WindDir_IsbL-0100_LatLon0.15_PT045H.grib2 2026-04-26 04:07 1.0M
20260426T00Z_MSC_GDPS_WindDir_IsbL-0150_LatLon0.15_PT045H.grib2 2026-04-26 04:07 1.0M
20260426T00Z_MSC_GDPS_WindDir_IsbL-0175_LatLon0.15_PT045H.grib2 2026-04-26 04:07 1.1M
20260426T00Z_MSC_GDPS_WindDir_IsbL-0200_LatLon0.15_PT045H.grib2 2026-04-26 04:07 1.1M
20260426T00Z_MSC_GDPS_WindDir_IsbL-0225_LatLon0.15_PT045H.grib2 2026-04-26 04:07 1.1M
20260426T00Z_MSC_GDPS_WindDir_IsbL-0250_LatLon0.15_PT045H.grib2 2026-04-26 04:07 1.1M
20260426T00Z_MSC_GDPS_WindDir_IsbL-0275_LatLon0.15_PT045H.grib2 2026-04-26 04:07 1.2M
20260426T00Z_MSC_GDPS_WindDir_IsbL-0300_LatLon0.15_PT045H.grib2 2026-04-26 04:07 1.2M
20260426T00Z_MSC_GDPS_WindDir_IsbL-0350_LatLon0.15_PT045H.grib2 2026-04-26 04:07 1.2M
20260426T00Z_MSC_GDPS_WindDir_IsbL-0400_LatLon0.15_PT045H.grib2 2026-04-26 04:07 1.2M
20260426T00Z_MSC_GDPS_WindDir_IsbL-0450_LatLon0.15_PT045H.grib2 2026-04-26 04:07 1.3M
20260426T00Z_MSC_GDPS_WindDir_IsbL-0500_LatLon0.15_PT045H.grib2 2026-04-26 04:07 1.3M
20260426T00Z_MSC_GDPS_WindDir_IsbL-0550_LatLon0.15_PT045H.grib2 2026-04-26 04:07 1.4M
20260426T00Z_MSC_GDPS_WindDir_IsbL-0600_LatLon0.15_PT045H.grib2 2026-04-26 04:07 1.4M
20260426T00Z_MSC_GDPS_WindDir_IsbL-0650_LatLon0.15_PT045H.grib2 2026-04-26 04:07 1.5M
20260426T00Z_MSC_GDPS_WindDir_IsbL-0700_LatLon0.15_PT045H.grib2 2026-04-26 04:07 1.6M
20260426T00Z_MSC_GDPS_WindDir_IsbL-0750_LatLon0.15_PT045H.grib2 2026-04-26 04:07 1.7M
20260426T00Z_MSC_GDPS_WindDir_IsbL-0800_LatLon0.15_PT045H.grib2 2026-04-26 04:07 1.8M
20260426T00Z_MSC_GDPS_WindDir_IsbL-0850_LatLon0.15_PT045H.grib2 2026-04-26 04:07 1.9M
20260426T00Z_MSC_GDPS_WindDir_IsbL-0875_LatLon0.15_PT045H.grib2 2026-04-26 04:07 2.0M
20260426T00Z_MSC_GDPS_WindDir_IsbL-0900_LatLon0.15_PT045H.grib2 2026-04-26 04:07 2.0M
20260426T00Z_MSC_GDPS_WindDir_IsbL-0925_LatLon0.15_PT045H.grib2 2026-04-26 04:07 2.0M
20260426T00Z_MSC_GDPS_WindDir_IsbL-0950_LatLon0.15_PT045H.grib2 2026-04-26 04:07 2.0M
20260426T00Z_MSC_GDPS_WindDir_IsbL-0970_LatLon0.15_PT045H.grib2 2026-04-26 04:07 2.0M
20260426T00Z_MSC_GDPS_WindDir_IsbL-0985_LatLon0.15_PT045H.grib2 2026-04-26 04:07 2.0M
20260426T00Z_MSC_GDPS_WindDir_IsbL-1000_LatLon0.15_PT045H.grib2 2026-04-26 04:07 2.1M
20260426T00Z_MSC_GDPS_WindDir_IsbL-1015_LatLon0.15_PT045H.grib2 2026-04-26 04:07 2.1M
20260426T00Z_MSC_GDPS_WindGust-Max_AGL-10m_LatLon0.15_PT045H.grib2 2026-04-26 04:07 2.2M
20260426T00Z_MSC_GDPS_WindGust-Min_AGL-10m_LatLon0.15_PT045H.grib2 2026-04-26 04:07 2.1M
20260426T00Z_MSC_GDPS_WindGust_AGL-10m_LatLon0.15_PT045H.grib2 2026-04-26 04:07 2.1M
20260426T00Z_MSC_GDPS_WindSpeed_AGL-10m_LatLon0.15_PT045H.grib2 2026-04-26 04:07 1.1M
20260426T00Z_MSC_GDPS_WindSpeed_AGL-120m_LatLon0.15_PT045H.grib2 2026-04-26 04:07 1.3M
20260426T00Z_MSC_GDPS_WindSpeed_AGL-40m_LatLon0.15_PT045H.grib2 2026-04-26 04:07 1.3M
20260426T00Z_MSC_GDPS_WindSpeed_AGL-80m_LatLon0.15_PT045H.grib2 2026-04-26 04:07 1.3M
20260426T00Z_MSC_GDPS_WindSpeed_IsbL-0001_LatLon0.15_PT045H.grib2 2026-04-26 04:07 646K
20260426T00Z_MSC_GDPS_WindSpeed_IsbL-0005_LatLon0.15_PT045H.grib2 2026-04-26 04:07 617K
20260426T00Z_MSC_GDPS_WindSpeed_IsbL-0010_LatLon0.15_PT045H.grib2 2026-04-26 04:07 634K
20260426T00Z_MSC_GDPS_WindSpeed_IsbL-0020_LatLon0.15_PT045H.grib2 2026-04-26 04:07 867K
20260426T00Z_MSC_GDPS_WindSpeed_IsbL-0030_LatLon0.15_PT045H.grib2 2026-04-26 04:07 868K
20260426T00Z_MSC_GDPS_WindSpeed_IsbL-0050_LatLon0.15_PT045H.grib2 2026-04-26 04:07 1.0M
20260426T00Z_MSC_GDPS_WindSpeed_IsbL-0100_LatLon0.15_PT045H.grib2 2026-04-26 04:07 1.1M
20260426T00Z_MSC_GDPS_WindSpeed_IsbL-0150_LatLon0.15_PT045H.grib2 2026-04-26 04:07 1.0M
20260426T00Z_MSC_GDPS_WindSpeed_IsbL-0175_LatLon0.15_PT045H.grib2 2026-04-26 04:07 1.0M
20260426T00Z_MSC_GDPS_WindSpeed_IsbL-0200_LatLon0.15_PT045H.grib2 2026-04-26 04:07 1.1M
20260426T00Z_MSC_GDPS_WindSpeed_IsbL-0225_LatLon0.15_PT045H.grib2 2026-04-26 04:07 1.1M
20260426T00Z_MSC_GDPS_WindSpeed_IsbL-0250_LatLon0.15_PT045H.grib2 2026-04-26 04:07 1.1M
20260426T00Z_MSC_GDPS_WindSpeed_IsbL-0275_LatLon0.15_PT045H.grib2 2026-04-26 04:07 1.1M
20260426T00Z_MSC_GDPS_WindSpeed_IsbL-0300_LatLon0.15_PT045H.grib2 2026-04-26 04:07 1.1M
20260426T00Z_MSC_GDPS_WindSpeed_IsbL-0350_LatLon0.15_PT045H.grib2 2026-04-26 04:07 1.1M
20260426T00Z_MSC_GDPS_WindSpeed_IsbL-0400_LatLon0.15_PT045H.grib2 2026-04-26 04:07 1.1M
20260426T00Z_MSC_GDPS_WindSpeed_IsbL-0450_LatLon0.15_PT045H.grib2 2026-04-26 04:07 1.1M
20260426T00Z_MSC_GDPS_WindSpeed_IsbL-0500_LatLon0.15_PT045H.grib2 2026-04-26 04:07 1.1M
20260426T00Z_MSC_GDPS_WindSpeed_IsbL-0550_LatLon0.15_PT045H.grib2 2026-04-26 04:07 1.1M
20260426T00Z_MSC_GDPS_WindSpeed_IsbL-0600_LatLon0.15_PT045H.grib2 2026-04-26 04:07 1.4M
20260426T00Z_MSC_GDPS_WindSpeed_IsbL-0650_LatLon0.15_PT045H.grib2 2026-04-26 04:07 1.4M
20260426T00Z_MSC_GDPS_WindSpeed_IsbL-0700_LatLon0.15_PT045H.grib2 2026-04-26 04:07 1.5M
20260426T00Z_MSC_GDPS_WindSpeed_IsbL-0750_LatLon0.15_PT045H.grib2 2026-04-26 04:07 1.6M
20260426T00Z_MSC_GDPS_WindSpeed_IsbL-0800_LatLon0.15_PT045H.grib2 2026-04-26 04:07 1.7M
20260426T00Z_MSC_GDPS_WindSpeed_IsbL-0850_LatLon0.15_PT045H.grib2 2026-04-26 04:07 1.4M
20260426T00Z_MSC_GDPS_WindSpeed_IsbL-0875_LatLon0.15_PT045H.grib2 2026-04-26 04:07 1.8M
20260426T00Z_MSC_GDPS_WindSpeed_IsbL-0900_LatLon0.15_PT045H.grib2 2026-04-26 04:07 1.8M
20260426T00Z_MSC_GDPS_WindSpeed_IsbL-0925_LatLon0.15_PT045H.grib2 2026-04-26 04:07 1.8M
20260426T00Z_MSC_GDPS_WindSpeed_IsbL-0950_LatLon0.15_PT045H.grib2 2026-04-26 04:07 1.9M
20260426T00Z_MSC_GDPS_WindSpeed_IsbL-0970_LatLon0.15_PT045H.grib2 2026-04-26 04:07 1.9M
20260426T00Z_MSC_GDPS_WindSpeed_IsbL-0985_LatLon0.15_PT045H.grib2 2026-04-26 04:07 1.9M
20260426T00Z_MSC_GDPS_WindSpeed_IsbL-1000_LatLon0.15_PT045H.grib2 2026-04-26 04:07 1.9M
20260426T00Z_MSC_GDPS_WindSpeed_IsbL-1015_LatLon0.15_PT045H.grib2 2026-04-26 04:07 1.8M
20260426T00Z_MSC_GDPS_WindU_AGL-10m_LatLon0.15_PT045H.grib2 2026-04-26 04:07 1.3M
20260426T00Z_MSC_GDPS_WindU_AGL-120m_LatLon0.15_PT045H.grib2 2026-04-26 04:07 1.0M
20260426T00Z_MSC_GDPS_WindU_AGL-40m_LatLon0.15_PT045H.grib2 2026-04-26 04:07 1.0M
20260426T00Z_MSC_GDPS_WindU_AGL-80m_LatLon0.15_PT045H.grib2 2026-04-26 04:07 1.0M
20260426T00Z_MSC_GDPS_WindU_IsbL-0001_LatLon0.15_PT045H.grib2 2026-04-26 04:07 502K
20260426T00Z_MSC_GDPS_WindU_IsbL-0005_LatLon0.15_PT045H.grib2 2026-04-26 04:07 697K
20260426T00Z_MSC_GDPS_WindU_IsbL-0010_LatLon0.15_PT045H.grib2 2026-04-26 04:07 709K
20260426T00Z_MSC_GDPS_WindU_IsbL-0020_LatLon0.15_PT045H.grib2 2026-04-26 04:07 740K
20260426T00Z_MSC_GDPS_WindU_IsbL-0030_LatLon0.15_PT045H.grib2 2026-04-26 04:07 743K
20260426T00Z_MSC_GDPS_WindU_IsbL-0050_LatLon0.15_PT045H.grib2 2026-04-26 04:07 700K
20260426T00Z_MSC_GDPS_WindU_IsbL-0100_LatLon0.15_PT045H.grib2 2026-04-26 04:07 918K
20260426T00Z_MSC_GDPS_WindU_IsbL-0150_LatLon0.15_PT045H.grib2 2026-04-26 04:07 1.0M
20260426T00Z_MSC_GDPS_WindU_IsbL-0175_LatLon0.15_PT045H.grib2 2026-04-26 04:07 1.0M
20260426T00Z_MSC_GDPS_WindU_IsbL-0200_LatLon0.15_PT045H.grib2 2026-04-26 04:07 846K
20260426T00Z_MSC_GDPS_WindU_IsbL-0225_LatLon0.15_PT045H.grib2 2026-04-26 04:07 855K
20260426T00Z_MSC_GDPS_WindU_IsbL-0250_LatLon0.15_PT045H.grib2 2026-04-26 04:07 856K
20260426T00Z_MSC_GDPS_WindU_IsbL-0275_LatLon0.15_PT045H.grib2 2026-04-26 04:07 882K
20260426T00Z_MSC_GDPS_WindU_IsbL-0300_LatLon0.15_PT045H.grib2 2026-04-26 04:07 875K
20260426T00Z_MSC_GDPS_WindU_IsbL-0350_LatLon0.15_PT045H.grib2 2026-04-26 04:07 887K
20260426T00Z_MSC_GDPS_WindU_IsbL-0400_LatLon0.15_PT045H.grib2 2026-04-26 04:07 889K
20260426T00Z_MSC_GDPS_WindU_IsbL-0450_LatLon0.15_PT045H.grib2 2026-04-26 04:07 1.1M
20260426T00Z_MSC_GDPS_WindU_IsbL-0500_LatLon0.15_PT045H.grib2 2026-04-26 04:07 1.1M
20260426T00Z_MSC_GDPS_WindU_IsbL-0550_LatLon0.15_PT045H.grib2 2026-04-26 04:07 1.1M
20260426T00Z_MSC_GDPS_WindU_IsbL-0600_LatLon0.15_PT045H.grib2 2026-04-26 04:07 1.1M
20260426T00Z_MSC_GDPS_WindU_IsbL-0650_LatLon0.15_PT045H.grib2 2026-04-26 04:07 1.2M
20260426T00Z_MSC_GDPS_WindU_IsbL-0700_LatLon0.15_PT045H.grib2 2026-04-26 04:07 1.2M
20260426T00Z_MSC_GDPS_WindU_IsbL-0750_LatLon0.15_PT045H.grib2 2026-04-26 04:07 1.3M
20260426T00Z_MSC_GDPS_WindU_IsbL-0800_LatLon0.15_PT045H.grib2 2026-04-26 04:07 1.4M
20260426T00Z_MSC_GDPS_WindU_IsbL-0850_LatLon0.15_PT045H.grib2 2026-04-26 04:07 1.4M
20260426T00Z_MSC_GDPS_WindU_IsbL-0875_LatLon0.15_PT045H.grib2 2026-04-26 04:07 1.4M
20260426T00Z_MSC_GDPS_WindU_IsbL-0900_LatLon0.15_PT045H.grib2 2026-04-26 04:07 1.5M
20260426T00Z_MSC_GDPS_WindU_IsbL-0925_LatLon0.15_PT045H.grib2 2026-04-26 04:07 1.5M
20260426T00Z_MSC_GDPS_WindU_IsbL-0950_LatLon0.15_PT045H.grib2 2026-04-26 04:07 1.4M
20260426T00Z_MSC_GDPS_WindU_IsbL-0970_LatLon0.15_PT045H.grib2 2026-04-26 04:07 1.4M
20260426T00Z_MSC_GDPS_WindU_IsbL-0985_LatLon0.15_PT045H.grib2 2026-04-26 04:07 1.4M
20260426T00Z_MSC_GDPS_WindU_IsbL-1000_LatLon0.15_PT045H.grib2 2026-04-26 04:07 1.4M
20260426T00Z_MSC_GDPS_WindU_IsbL-1015_LatLon0.15_PT045H.grib2 2026-04-26 04:07 1.4M
20260426T00Z_MSC_GDPS_WindV_AGL-10m_LatLon0.15_PT045H.grib2 2026-04-26 04:07 1.3M
20260426T00Z_MSC_GDPS_WindV_AGL-120m_LatLon0.15_PT045H.grib2 2026-04-26 04:07 1.0M
20260426T00Z_MSC_GDPS_WindV_AGL-40m_LatLon0.15_PT045H.grib2 2026-04-26 04:07 1.0M
20260426T00Z_MSC_GDPS_WindV_AGL-80m_LatLon0.15_PT045H.grib2 2026-04-26 04:07 1.0M
20260426T00Z_MSC_GDPS_WindV_IsbL-0001_LatLon0.15_PT045H.grib2 2026-04-26 04:07 712K
20260426T00Z_MSC_GDPS_WindV_IsbL-0005_LatLon0.15_PT045H.grib2 2026-04-26 04:07 861K
20260426T00Z_MSC_GDPS_WindV_IsbL-0010_LatLon0.15_PT045H.grib2 2026-04-26 04:07 799K
20260426T00Z_MSC_GDPS_WindV_IsbL-0020_LatLon0.15_PT045H.grib2 2026-04-26 04:07 856K
20260426T00Z_MSC_GDPS_WindV_IsbL-0030_LatLon0.15_PT045H.grib2 2026-04-26 04:07 855K
20260426T00Z_MSC_GDPS_WindV_IsbL-0050_LatLon0.15_PT045H.grib2 2026-04-26 04:07 1.0M
20260426T00Z_MSC_GDPS_WindV_IsbL-0100_LatLon0.15_PT045H.grib2 2026-04-26 04:07 1.1M
20260426T00Z_MSC_GDPS_WindV_IsbL-0150_LatLon0.15_PT045H.grib2 2026-04-26 04:07 1.0M
20260426T00Z_MSC_GDPS_WindV_IsbL-0175_LatLon0.15_PT045H.grib2 2026-04-26 04:07 1.0M
20260426T00Z_MSC_GDPS_WindV_IsbL-0200_LatLon0.15_PT045H.grib2 2026-04-26 04:07 842K
20260426T00Z_MSC_GDPS_WindV_IsbL-0225_LatLon0.15_PT045H.grib2 2026-04-26 04:07 851K
20260426T00Z_MSC_GDPS_WindV_IsbL-0250_LatLon0.15_PT045H.grib2 2026-04-26 04:07 850K
20260426T00Z_MSC_GDPS_WindV_IsbL-0275_LatLon0.15_PT045H.grib2 2026-04-26 04:07 876K
20260426T00Z_MSC_GDPS_WindV_IsbL-0300_LatLon0.15_PT045H.grib2 2026-04-26 04:07 866K
20260426T00Z_MSC_GDPS_WindV_IsbL-0350_LatLon0.15_PT045H.grib2 2026-04-26 04:07 878K
20260426T00Z_MSC_GDPS_WindV_IsbL-0400_LatLon0.15_PT045H.grib2 2026-04-26 04:07 878K
20260426T00Z_MSC_GDPS_WindV_IsbL-0450_LatLon0.15_PT045H.grib2 2026-04-26 04:07 880K
20260426T00Z_MSC_GDPS_WindV_IsbL-0500_LatLon0.15_PT045H.grib2 2026-04-26 04:07 1.1M
20260426T00Z_MSC_GDPS_WindV_IsbL-0550_LatLon0.15_PT045H.grib2 2026-04-26 04:07 1.1M
20260426T00Z_MSC_GDPS_WindV_IsbL-0600_LatLon0.15_PT045H.grib2 2026-04-26 04:07 1.1M
20260426T00Z_MSC_GDPS_WindV_IsbL-0650_LatLon0.15_PT045H.grib2 2026-04-26 04:07 1.2M
20260426T00Z_MSC_GDPS_WindV_IsbL-0700_LatLon0.15_PT045H.grib2 2026-04-26 04:07 1.2M
20260426T00Z_MSC_GDPS_WindV_IsbL-0750_LatLon0.15_PT045H.grib2 2026-04-26 04:07 1.3M
20260426T00Z_MSC_GDPS_WindV_IsbL-0800_LatLon0.15_PT045H.grib2 2026-04-26 04:07 1.3M
20260426T00Z_MSC_GDPS_WindV_IsbL-0850_LatLon0.15_PT045H.grib2 2026-04-26 04:07 1.4M
20260426T00Z_MSC_GDPS_WindV_IsbL-0875_LatLon0.15_PT045H.grib2 2026-04-26 04:07 1.4M
20260426T00Z_MSC_GDPS_WindV_IsbL-0900_LatLon0.15_PT045H.grib2 2026-04-26 04:07 1.5M
20260426T00Z_MSC_GDPS_WindV_IsbL-0925_LatLon0.15_PT045H.grib2 2026-04-26 04:07 1.5M
20260426T00Z_MSC_GDPS_WindV_IsbL-0950_LatLon0.15_PT045H.grib2 2026-04-26 04:07 1.4M
20260426T00Z_MSC_GDPS_WindV_IsbL-0970_LatLon0.15_PT045H.grib2 2026-04-26 04:07 1.4M
20260426T00Z_MSC_GDPS_WindV_IsbL-0985_LatLon0.15_PT045H.grib2 2026-04-26 04:07 1.4M
20260426T00Z_MSC_GDPS_WindV_IsbL-1000_LatLon0.15_PT045H.grib2 2026-04-26 04:07 1.4M
20260426T00Z_MSC_GDPS_WindV_IsbL-1015_LatLon0.15_PT045H.grib2 2026-04-26 04:07 1.4M